www.pogodaiklimat.ru

Погода и климат >> Архив погоды >> Россия >> Московская область >> Красногорск


ПОГОДА в Красногорске

АРХИВ ПОГОДЫ в Красногорске

Время (UTC), дата Ветер
(напр.,м/с)
 
Видим.   Явления Облачность Т
(С)
Тd
(С)
f
(%)
Тe
(С)
Тes
(С)
Комфортность P
(гПа)
Po
(гПа)
Тmin
(С)
Tmax
(С)
R
(мм)
R24
(мм)
S
(см)
06 13.09 З 2 н/о н/о +16.0 +11.7 76 +16 +16 тепло 1013.9 997.7 +15.5 0.2
09 13.09 ЮЗ 3 н/о н/о +18.5 +9.0 54 +19 +19 тепло 1015.5 999.3
12 13.09 ЮЗ 3 н/о н/о +20.7 +7.0 41 +22 +22 комфорт 1015.8 999.7
15 13.09 З 2 н/о н/о +18.7 +5.5 42 +20 +20 тепло 1016.4 1000.3
18 13.09 штиль 0 н/о н/о +13.4 +7.5 67 +13 +13 тепло 1018.2 1001.7 +20.9
21 13.09 штиль 0 н/о н/о +10.4 +8.0 85 +10 +10 по сезону 1019.1 1002.4
00 14.09 штиль 0 н/о н/о +7.8 +6.7 93 +7 +7 по сезону 1019.9 1003.1
03 14.09 штиль 0 н/о н/о +6.9 +6.2 95 +6 +6 по сезону 1020.8 1003.9 +6.9
06 14.09 штиль 0 н/о н/о +11.4 +9.0 85 +11 +11 тепло 1020.9 1004.3 +6.9
09 14.09 Ю 1 н/о н/о +19.6 +6.7 43 +21 +21 комфорт 1020.3 1004.1
12 14.09 ЮЗ 1 н/о н/о +21.0 +4.8 35 +23 +23 комфорт 1019.2 1003.1
15 14.09 штиль 0 н/о н/о +17.5 +5.4 45 +18 +18 тепло 1018.7 1002.4
18 14.09 штиль 0 н/о н/о +12.5 +9.7 83 +12 +12 тепло 1019.7 1003.1 +21.4
21 14.09 штиль 0 н/о н/о +11.8 +10.2 90 +11 +11 тепло 1019.6 1003.0
00 15.09 штиль 0 н/о н/о +12.1 +10.5 90 +11 +11 тепло 1019.5 1002.9
03 15.09 штиль 0 н/о н/о +12.5 +10.0 85 +12 +12 тепло 1019.5 1003.0 +11.1
06 15.09 Ю 1 н/о н/о +15.2 +10.4 73 +16 +16 тепло 1019.8 1003.4 +11.1
09 15.09 штиль 0 н/о н/о +22.1 +7.5 39 +23 +23 комфорт 1019.0 1003.0
12 15.09 штиль 0 н/о н/о +23.0 +6.7 35 +24 +24 комфорт 1017.5 1001.5
15 15.09 ЮВ 1 н/о н/о +20.0 +6.0 40 +22 +22 комфорт 1016.7 1000.6
18 15.09 штиль 0 н/о н/о +14.9 +9.0 68 +15 +15 тепло 1016.4 1000.0 +23.3
21 15.09 ЮВ 1 н/о н/о +17.5 +8.2 54 +19 +19 тепло 1014.6 998.5
00 16.09 ЮВ 1 н/о н/о +16.0 +9.5 65 +17 +17 тепло 1012.9 996.7
03 16.09 штиль 0 н/о н/о +15.9 +9.4 65 +16 +16 тепло 1011.0 994.8 +14.9
06 16.09 штиль 0 н/о н/о +16.8 +10.4 66 +17 +17 тепло 1009.7 993.6 +15.1
09 16.09 СЗ 1 н/о н/о +13.7 +12.5 92 +14 +14 тепло 1009.9 993.5
12 16.09 СЗ 2 н/о н/о +13.5 +12.0 91 +13 +13 по сезону 1010.5 994.2
15 16.09 СЗ 1 н/о н/о +14.3 +11.7 84 +15 +15 тепло 1011.2 994.9 0.4
18 16.09 СЗ 2 н/о н/о +13.2 +9.8 80 +12 +12 тепло 1012.1 995.8 +17.4 0.4
21 16.09 СЗ 2 н/о н/о +10.8 +8.2 84 +9 +9 по сезону 1013.9 997.3
00 17.09 СЗ 2 н/о н/о +9.0 +6.7 85 +7 +7 по сезону 1015.1 998.4
03 17.09 З 2 н/о н/о +7.5 +5.7 88 +5 +5 по сезону 1016.9 1000.1 +7.3
06 17.09 З 2 н/о н/о +11.2 +6.0 70 +10 +10 по сезону 1018.2 1001.6 +7.3
09 17.09 З 3 н/о н/о +16.1 +3.8 44 +16 +16 тепло 1018.3 1001.9
12 17.09 З 2 н/о н/о +18.1 +2.8 36 +19 +19 тепло 1017.6 1001.4
15 17.09 З 1 н/о н/о +15.5 +3.5 45 +16 +16 тепло 1017.4 1001.0
18 17.09 ЮЗ 1 н/о н/о +9.6 +7.2 85 +9 +9 по сезону 1017.5 1000.8 +18.2
21 17.09 ЮЗ 1 н/о н/о +11.2 +6.5 73 +11 +11 тепло 1016.2 999.7
00 18.09 ЮЗ 2 н/о н/о +12.6 +7.7 72 +12 +12 тепло 1014.2 997.8
03 18.09 ЮЗ 1 н/о н/о +10.8 +9.7 93 +10 +10 тепло 1012.9 996.4 +9.6 0.2
06 18.09 ЮЗ 2 н/о н/о +13.2 +11.0 87 +12 +12 тепло 1012.6 996.2 +9.9 0.5
09 18.09 З 3 н/о н/о +15.3 +9.4 68 +15 +15 тепло 1012.8 996.5
12 18.09 З 2 н/о н/о +18.1 +8.4 53 +19 +19 тепло 1013.1 996.9
15 18.09 СЗ 2 н/о н/о +14.9 +5.7 54 +15 +15 тепло 1014.6 998.2 0.2
18 18.09 З 1 н/о н/о +11.6 +6.2 69 +12 +12 тепло 1016.6 1000.0 +18.2
21 18.09 штиль 0 н/о н/о +8.2 +6.4 88 +7 +7 по сезону 1017.4 1000.6
00 19.09 ЮЗ 1 н/о н/о +8.2 +6.5 89 +7 +7 по сезону 1017.4 1000.6
03 19.09 штиль 0 н/о н/о +9.2 +7.5 89 +8 +8 по сезону 1017.1 1000.4 +7.9

 

Местоположение метеостанции Красногорск (Московская область, Россия): широта 55.81 долгота 37.34 высота над уровнем моря 136 м.

В архиве по умолчанию представлена погода в Красногорске за последнюю неделю. Архивные данные за месяц целиком и за предыдущие месяцы, начиная с января 2011 года, Вы можете получить, выбрав интересующий диапазон дат из раскрывающегося списка и нажав кнопку "Ввод!".


*Определитесь, кто Вы:
робот инопланетянин человек

Внимание! Время в таблицах - всемирное. Для получения местного времени необходимо прибавить поправку, которая в Красногорске равна 3 ч.

Смотрите также архив погоды в соседних городах и на ближайших метеорологических станциях:

Погода в Москве (Строгино) (город Москва, Россия) (4 км)
Погода в Москве (Тушино) (город Москва, Россия) (8 км)
Погода в Немчиновке (город Москва, Россия) (12 км)
Погода в Подмосковной (Московская область, Россия) (13 км)
Погода в Долгопрудном (Московская область, Россия) (17 км)
Погода в Москве (город Москва, Россия) (18 км)
Погода в Шереметьево (Московская область, Россия) (18 км)
Погода в Москве (Балчуг) (город Москва, Россия) (19 км)
Погода в Внуково (Московская область, Россия) (24 км)
Погода в Толстопальцево (город Москва, Россия) (26 км)

Пояснения к столбцам:

Ветер - указаны скорость ветра в м/с - средняя за 10 мин, порывы в срок и между сроками (в фигурных скобках) и направление, откуда дует ветер: С - северный, СВ - северо-восточный, В - восточный, ЮВ - юго-восточный, Ю - южный, ЮЗ - юго-западный, З - западный, СЗ - северо-западный.
Видимость - горизонтальная дальность видимости в метрах или километрах. При видимости от 1 до 10 км при отсутствии осадков обычно наблюдается дымка, при ухудшении видимости до 1 км и менее - туман. В сухую погоду видимость может ухудшаться дымом, пылью или мглою.
Явления - указаны атмосферные явления, наблюдавшиеся в срок или в последний час перед сроком; фигурными скобками обозначены явления, наблюдавшиеся между сроками (за 1-3 часа до срока); квадратными скобками обозначены град или гололедные отложения с указанием их диаметра в мм.
Облачность - указаны через наклонную черту общая и нижняя облачность в баллах и высота нижней границы облаков в метрах; квадратными скобками обозначены формы облаков: Ci - перистые, Cs - перисто-слоистые, Cc - перисто-кучевые, Ac - высококучевые, As - высокослоистые, Sc - слоисто-кучевые, Ns - слоисто-дождевые, Cu - кучевые, Cb - кучево-дождевые. Подробнее классификацию облаков см. в Атласе облаков (PDF).
T - Температура воздуха - температура, измеренная на высоте 2 м над землей.
Td - Температура точки росы - температура, при понижении до которой содержащийся в воздухе водяной пар достигнет насыщения.
f - Относительная влажность воздуха - влажноcть воздуха, измеренная на высоте 2 м над землей.
Te - Эффективная температура - температура, которую ощущает одетый по сезону человек в тени. Характеристика душности погоды. При расчете учитывается влияние влажности воздуха и скорости ветра на теплоощущения человека.
Tes - Эффективная температура на солнце - температура, которую ощущает человек, с поправкой на солнечный нагрев. Характеристика знойности погоды. Зависит от высоты солнца над горизонтом, облачности и скорости ветра. Ночью, в пасмурную погоду, а также при ветре 12 м/с и более поправка равна нулю.
P - Атмосферное давление - приведенное к уровню моря атмосферное давление.
Po - Атмосферное давление - измеренное на уровне метеостанции атмосферное давление.
Tmin - Минимальная температура - минимум температуры воздуха на высоте 2 м над землей.
Tmax - Максимальная температура - максимум температуры воздуха на высоте 2 м над землей.
R - Количество осадков - Количество выпавших осадков за период времени, мм. При наведении курсора мыши на число - период времени, за который выпало указанное количество осадков.
R24 - Количество осадков - Количество выпавших осадков за 24 часа, мм.
S - Снежный покров - Высота снежного покрова, см. При наведении курсора мыши на число - состояние снежного покрова и степень покрытия местности в баллах.